Regional Weather Roundup
Issued by NWS Cleveland, OH

Home | Current Version | Previous Version | Graphics & Text | Print | Product List | Glossary On
Versions: 1 2 3 4 5 6 7 8 9 10 11 12 13 14 15 16 17 18 19 20 21 22 23 24 25 26 27 28 29 30 31 32 33 34 35 36 37 38 39 40 41 42 43 44 45 46 47 48 49 50
000
ASUS41 KCLE 241700
RWRCLE
OHIO REGIONAL WEATHER ROUNDUP
NATIONAL WEATHER SERVICE WILMINGTON, OH
1200 PM EST MON NOV 24 2014

NOTE: "FAIR" INDICATES FEW OR NO CLOUDS BELOW 12,000 FEET WITH NO
SIGNIFICANT WEATHER AND/OR OBSTRUCTIONS TO VISIBILITY.

OHZ001>008-015>018-024>027-034-035-043-044-241800-
   NORTHWEST OHIO

CITY           SKY/WX    TMP DP  RH WIND       PRES   REMARKS
DEFIANCE       NOT AVBL
FINDLAY        PTSUNNY   59  50  72 SW26G45   29.24R
TOLEDO EXPRESS CLOUDY    58  48  69 SW25G44   29.19R
TOLEDO METCALF PTSUNNY   58  49  72 SW26G40   29.19S
LIMA           CLOUDY    53  32  44 SW28G52   29.31R
$$

OHZ009>014-019>023-028>033-038-089-241800-
   NORTHEAST OHIO

CITY           SKY/WX    TMP DP  RH WIND       PRES   REMARKS
CLE-HOPKINS    LGT RAIN  58  50  75 SW22G43   29.29R
CLE-LAKEFRONT  LGT RAIN  63  49  60 SW28G49   29.25R
CUY CO. ARPT   CLOUDY    64  50  59 S23G39    29.24S
LORAIN-ELYRIA  LGT RAIN  57  50  77 SW28G46   29.27R
ASHTABULA      CLOUDY    62  49  62 SW21G38   29.27F
AKRON-CANTON   CLOUDY    63  47  55 SW25G44   29.31F
WOOSTER        NOT AVBL
MANSFIELD      LGT RAIN  56  51  84 SW29G41   29.31R
YOUNGSTOWN     CLOUDY    64  46  52 SW21G37   29.32S
$$

OHZ042-051>053-060>062-070>072-077>081-241800-
  SOUTHWEST OHIO

CITY           SKY/WX    TMP DP  RH WIND       PRES   REMARKS
CINC-COVINGTON PTSUNNY   52  41  66 SW22G40   29.52R
CINC-LUNKEN    CLOUDY    54  45  71 W25G45    29.52R
HAMILTON       CLOUDY    54  44  69 SW24G39   29.50R
DAYTON         LGT RAIN  54  45  71 SW41G48   29.42R
WRIGHT-PAT AFB NOT AVBL
DAYTON GENERAL CLOUDY    53  46  77 SW23G36   29.44R
WILMINGTON     PTSUNNY   57  47  69 SW26G48   29.44R
$$

OHZ036-037-039>041-045>050-054>059-063>069-073>076-082>088-241800-
  CENTRAL AND SOUTHEAST OHIO

CITY           SKY/WX    TMP DP  RH WIND       PRES   REMARKS
COLUMBUS       LGT RAIN  58  47  66 W28G51    29.40R
OSU AIRPORT    LGT RAIN  55  49  80 SW28G44   29.39R
BOLTON FIELD   LGT RAIN  54  52  94 SW29G46   29.42R
RICKENBACK AFB NOT AVBL
NEWARK         CLOUDY    63  46  54 SW28G44   29.37R
MARION         LGT RAIN  57  50  77 SW28G39   29.32R
LANCASTER      CLOUDY    64  46  52 SW23G40   29.40R
ZANESVILLE     CLOUDY    64  44  48 SW22G33   29.40R
NEW PHILLY     CLOUDY    66  45  46 SW17G36   29.37S
$$


USA.gov is the U.S. government's official web portal to all federal, state and local government web resources and services.